Location: *
(40.9167°N, 9.5000°E)
Time: 02:42:43
(UTC+00:00)

Nadezhda 1 Rocket - Pass Details

Date: 09 April 2020
Orbit: 940 x 1006 km, 83.0° (Epoch: 31 May)

Event Time Altitude Azimuth Distance (km) Brightness Sun altitude
Rises 19:14:36 0° 192° (SSW) 3,719 6.9 -15.0°
Reaches altitude 10° 19:17:08 10° 194° (SSW) 2,772 6.3 -15.4°
Maximum altitude 19:23:30 71° 279° (W) 1,058 4.3 -16.5°
Drops below altitude 10° 19:29:51 10° 3° (N) 2,764 6.7 -17.5°
Sets 19:32:23 0° 6° (N) 3,708 7.3 -18.0°
